[Iaude] MPEC L60: 2024 LC1 [a=1.88,e=0.62,i=5.7,H=20.2,PHA]

mpec at cfa.harvard.edu mpec at cfa.harvard.edu
Thu Jun 6 05:17:36 EDT 2024


M.P.E.C. 2024-L60                                  Issued 2024 June 6, 09:16 UT

     The Minor Planet Electronic Circulars contain information on unusual
         minor planets, routine data on comets and natural satellites,
         and occasional editorial announcements.  They are published
    on behalf of Division F of the International Astronomical Union by the
          Minor Planet Center, Smithsonian Astrophysical Observatory,
                          Cambridge, MA 02138, U.S.A.
			  
             Prepared using the Tamkin Foundation Computer Network

                              MPC at CFA.HARVARD.EDU
            URL https://www.minorplanetcenter.net/    ISSN 1523-6714

                                    2024 LC1                                    


Observations:
     K24L01C 1C2024 06 01.39668 21 00 07.65 -02 48 52.1          19.1 GVEL060703
     K24L01C 1C2024 06 01.39900 21 00 08.57 -02 48 43.2          19.8 GVEL060703
     K24L01C*1C2024 06 05.40114021 30 31.306+01 51 17.96         20.33GVEL060G96
     K24L01C 1C2024 06 05.40592621 30 33.638+01 51 40.03         20.11GVEL060G96
     K24L01C 1C2024 06 05.41072421 30 35.975+01 52 02.24         19.82GVEL060G96
     K24L01C 1C2024 06 05.41552521 30 38.322+01 52 24.10         19.78GVEL060G96
     K24L01C  C2024 06 05.43472121 30 47.588+01 53 52.06         19.2 GVEL060H01
     K24L01C  C2024 06 05.43807821 30 49.226+01 54 07.53         19.2 GVEL060H01
     K24L01C  C2024 06 05.44301321 30 51.640+01 54 30.31         19.4 GVEL060H01
     K24L01C  C2024 06 05.44691221 30 53.542+01 54 48.31         19.2 GVEL060H01
     K24L01C mC2024 06 05.45429321 30 57.269+01 55 23.05         19.43GVEL060I52
     K24L01C mC2024 06 05.45471721 30 57.467+01 55 25.07         19.41GVEL060I52
     K24L01C mC2024 06 05.45514321 30 57.676+01 55 27.12         19.45GVEL060I52
     K24L01C mC2024 06 05.45557921 30 57.892+01 55 29.17         19.33GVEL060I52
     K24L01C mC2024 06 05.45648021 30 58.327+01 55 33.17         19.45GVEL060V06
     K24L01C mC2024 06 05.45675221 30 58.453+01 55 34.43         19.60GVEL060V06
     K24L01C mC2024 06 05.45702621 30 58.597+01 55 35.76         19.46GVEL060V06
     K24L01C mC2024 06 05.45730121 30 58.734+01 55 36.98         19.48GVEL060V06
     K24L01C KB2024 06 05.76130 21 33 32.16 +02 19 06.4          19.6 GVEL060P13
     K24L01C KB2024 06 05.76861 21 33 35.75 +02 19 40.0          18.4 GVEL060P13
     K24L01C KB2024 06 05.77470 21 33 38.83 +02 20 08.3          19.3 GVEL060P13
     K24L01C KB2024 06 06.32554 21 38 21.518+03 03 37.58         20.1 RZEL060H36
     K24L01C KC2024 06 06.32827621 38 22.73 +03 03 49.9          19.5 GVEL060H21
     K24L01C KC2024 06 06.33020621 38 23.73 +03 03 59.1          19.5 GVEL060H21
     K24L01C KC2024 06 06.33213621 38 24.73 +03 04 08.0          19.9 GVEL060H21
     K24L01C KC2024 06 06.33406521 38 25.70 +03 04 17.5          19.9 GVEL060H21
     K24L01C KB2024 06 06.33563 21 38 26.717+03 04 25.10         19.6 RZEL060H36
     K24L01C KC2024 06 06.36352521 38 41.374+03 06 41.51         19.54GVEL060I52
     K24L01C KC2024 06 06.36417721 38 41.716+03 06 44.53         19.36GVEL060I52
     K24L01C KC2024 06 06.36483321 38 42.040+03 06 47.77         19.53GVEL060I52
     K24L01C KC2024 06 06.36548521 38 42.385+03 06 51.05         19.32GVEL060I52

Observer details:
703 Catalina Sky Survey.  Observer R. A. Kowalski.  Measurers B. Gray, D.
    Rankin, F. C. Shelly.  0.68-m Schmidt + 10K CCD.
G96 Mt. Lemmon Survey.  Observer G. J. Leonard.  Measurers T. Beuden, V. F.
    Carvajal, D. Fay, J. B. Fazekas, D. C. Fuls, A. R. Gibbs, A. D. Grauer, H.
    Groeller, J. K. Hogan, R. A. Kowalski, S. M. Larson, G. J. Leonard, D.
    Rankin, R. L. Seaman, F. C. Shelly, K. W. Wierzchos.  1.5-m reflector +
    10K CCD.
H01 Magdalena Ridge Observatory, Socorro.  Observers W. H. Ryan, E. V. Ryan.
    Measurer W. H. Ryan.  2.4-m f/8.9 Ritchey-Chretien + CCD.
H21 Astronomical Research Observatory, Westfield.  Observer R. Holmes.
    Measurers T. Linder, R. Holmes, L. Horn.  0.76-m f/3.0 astrograph + CCD.
H36 Sandlot Observatory, Scranton.  Observer G. Hug.  0.56-m f/4.8 reflector +
    CMO.
I52 Steward Observatory, Mt. Lemmon Station.  Observers T. Beuden, D. Rankin.
    Measurers T. Beuden, V. F. Carvajal, D. Fay, J. B. Fazekas, D. C. Fuls, A.
    R. Gibbs, A. D. Grauer, H. Groeller, J. K. Hogan, R. A. Kowalski, S. M.
    Larson, G. J. Leonard, D. Rankin, R. L. Seaman, F. C. Shelly, K. W.
    Wierzchos.  1.0-m prime focus + CCD.
P13 Baihuashan Observatory, Beijing.  Observers Z. Wang, B. Liu.  Measurer Z.
    Wang.  0.28-m f/2.2 reflector + CMO.
V06 Catalina Sky Survey-Kuiper.  Observer T. Beuden.  Measurers T. Beuden, V.
    F. Carvajal, D. Fay, J. B. Fazekas, D. C. Fuls, A. R. Gibbs, A. D. Grauer,
    H. Groeller, J. K. Hogan, R. A. Kowalski, S. M. Larson, G. J. Leonard, D.
    Rankin, R. L. Seaman, F. C. Shelly, K. W. Wierzchos.  1.55-m reflector +
    1K CCD.

Orbital elements:
2024 LC1                                            PHA, Earth MOID = 0.0364 AU
Epoch 2024 Mar. 31.0 TT = JDT 2460400.5                 MPC                     
M 311.77372              (2000.0)            P               Q                  
n   0.38170200     Peri.  129.54563     +0.99405660     +0.08211622             
a   1.8821451      Node   225.87471     -0.10134995     +0.93774895             
e   0.6168860      Incl.    5.71440     +0.03974505     +0.33746680             
P   2.58           H   20.20          G   0.15           U   9                  
Residuals in seconds of arc
240601 703  0.3+  0.1-    240605 I52  0.1-  0.0     240606 H21  0.2-  0.2+
240601 703  0.1-  0.0     240605 I52  0.1-  0.1+    240606 H21  0.0   0.1+
240605 G96  0.1+  0.1+    240605 I52  0.0   0.1+    240606 H21  0.2+  0.2-
240605 G96  0.0   0.1+    240605 V06  0.1-  0.1-    240606 H21  0.0   0.0
240605 G96  0.1-  0.2+    240605 V06  0.2-  0.0     240606 H36  0.6+  0.0
240605 G96  0.1-  0.1-    240605 V06  0.0   0.0     240606 I52  0.1-  0.2-
240605 H01  0.0   0.0     240605 V06  0.0   0.0     240606 I52  0.0   0.3-
240605 H01  0.1-  0.0     240605 P13  0.7+  0.2+    240606 I52  0.2-  0.2-
240605 H01  0.0   0.0     240605 P13  0.1-  0.4-    240606 I52  0.0   0.1-
240605 H01  0.0   0.0     240605 P13  0.6+  0.6-
240605 I52  0.1+  0.1-    240606 H36  0.0   0.8+

Ephemeris:
2024 LC1                 a,e,i = 1.88, 0.62, 6                   q = 0.7211
Date    TT    R. A. (2000) Decl.     Delta      r    Elong.  Phase     V
2024 05 07    19 08 39.8 -17 22 17   0.6139  1.4196   120.0    38.0    21.4
...
2024 05 22    20 02 09.1 -11 09 55   0.4187  1.2759   120.3    43.2    20.5
...
2024 05 30    20 44 23.0 -05 10 50   0.3331  1.1976   116.0    49.5    20.1
...
2024 06 05    21 27 11.9 +01 20 59   0.2821  1.1387   109.1    57.3    19.8
2024 06 06    21 35 32.1 +02 38 04   0.2751  1.1289   107.6    59.0    19.8
2024 06 07    21 44 15.2 +03 58 24   0.2685  1.1190   106.0    60.7    19.8
...
2024 06 13    22 44 51.0 +12 52 17   0.2412  1.0605    94.1    72.8    19.8
...
2024 06 21    00 22 59.9 +24 09 39   0.2420  0.9840    75.5    90.7    20.3
...
2024 07 06    03 05 35.1 +31 53 36   0.3429  0.8527    52.5   108.9    21.6

A. U. Tomatic                (C) Copyright 2024 MPC           M.P.E.C. 2024-L60





More information about the Iaude mailing list